THORAD DELTA 1 DEB, 8173

Orbit data source: Space-Track

THORAD DELTA 1 DEB, 8173 is space debris in SSO originally from a launch on Fri, 15 Nov 1974 UTC launched from the Air Force Western Test Range (AFWTR). Debris objects in space refer to the collection of defunct objects orbiting the Earth. Examples of debris include non-operational satellites, rocket bodies, and fragments generated from explosions, collisions, or faulty payload assembly.

Loading next visibility...
Identifier
8173, 1974-089AP
Orbit
SSO
Country
Flag of USUS
Related business
Manufacturer
Unknown
Mission
Spacecraft
Bus & Motor
Unknown
Mass
Unknown
Launch date (UTC)
1974-11-15 (52 years ago)
Launch vehicle
Unknown
Launch site
Air Force Western Test Range (AFWTR)
Object type
Payload
Rocket body
Debris
Shape & HBR
Unknown shape, 0.1 m
Radar Cross Section
Medium (>0.1 m² and <1 m²)

Expand to show TLE details & history
Last TLE update: 14 hours ago

TLE from 14 hours ago
0 THORAD DELTA 1 DEB
1 08173U 74089AP  26207.45188554 -.00000012  00000-0  21207-3 0  9993
2 08173 101.9966 190.2661 0110006  52.2723 101.3282 12.51898966359905
Epoch: 2026-07-26T10:50Z
TLE epoch observation values (Epoch: 2026-07-26T10:50:42.910Z)
Latitude
24.60731°
Longitude
-91.00488°
Altitude
1,477.072 km
Speed
7.119 km/s
True Right ascension
01h 03m 17s
True Declination
24° 29' 21"
Sunlit
Object was in daylight at epoch
Visualization orbit readout
Latitude
Unknown
Longitude
Unknown
Altitude
Unknown
Speed
Unknown
Apparent Right ascension
Unknown
Apparent Declination
Unknown
Sunlit
N/A
Visualization observer readout
Local Sidereal Time
13:53:06
Azimuth
Unknown
Elevation
Unknown
Doppler factor
Unknown
Orbital elements
Apogee altitude
1,540.28 km
Perigee altitude
1,367.961 km
Semi-major axis
7,832.258 km
Eccentricity
0.011
Inclination
101.9966°
RAAN
190.2661°
Arg. of periapsis
52.2723°
True anomaly
102.56079°
Mean anomaly
101.3282°
Eccentric anomaly
101.94484°
Mean motion
3.13121 °/min
Orbital period
114.97 mins
BSTAR
0.00021207
Loading maneuver chart data...
Computing Atmospheric mass density...

Documentation

Showing up to 5 results
|